Total_Precipitation_Accumulation
1.99 2.15 2.26 2.24 2.30 2.37 2.52 2.64 2.72 2.53 2.29 2.13 2.10 2.03 2.04 2.09 2.28 1.92 1.88 2.09 1.93 1.79 1.72 1.69 1.70 1.77 1.80 1.79 1.80 1.89 1.98 2.05 2.14 2.24 2.33 2.49 2.62 2.73
1.76 1.87 1.97 2.02 2.13 2.21 2.34 2.46 2.53 2.49 2.36 2.12 2.06 2.03 1.98 1.85 2.02 1.73 1.74 1.94 1.80 1.68 1.59 1.55 1.54 1.58 1.61 1.65 1.67 1.66 1.65 1.64 1.67 1.72 1.80 1.89 2.04 2.27
1.82 1.87 1.90 1.93 2.00 2.00 2.03 2.09 2.22 2.38 2.51 2.36 2.16 2.09 2.06 1.97 1.85 1.66 1.55 1.54 1.53 1.59 1.55 1.52 1.46 1.44 1.48 1.47 1.42 1.39 1.37 1.38 1.41 1.43 1.47 1.57 1.64 1.73
1.74 1.83 1.80 1.75 1.80 1.88 1.93 1.92 1.97 2.11 2.27 2.28 2.14 1.98 1.95 1.93 1.87 1.80 1.52 1.38 1.38 1.41 1.34 1.28 1.28 1.25 1.22 1.24 1.25 1.21 1.17 1.19 1.23 1.26 1.28 1.32 1.39 1.49
1.53 1.56 1.57 1.59 1.55 1.56 1.63 1.69 1.69 1.71 1.89 1.95 1.92 1.87 1.80 1.75 1.81 1.78 1.62 1.65 1.35 1.27 1.18 1.10 1.06 1.03 0.98 0.96 1.02 1.09 1.09 1.03 1.02 1.06 1.10 1.17 1.22 1.27
1.23 1.25 1.29 1.37 1.38 1.41 1.40 1.46 1.51 1.64 1.72 1.79 1.74 1.72 1.71 1.62 1.67 1.71 1.66 1.55 1.39 1.14 1.14 0.99 0.91 0.84 0.83 0.84 0.83 0.87 0.93 0.99 1.07 1.08 1.03 0.96 0.97 1.00
1.03 1.01 0.98 1.11 1.21 1.20 1.10 1.23 1.39 1.55 1.63 1.66 1.59 1.52 1.46 1.54 1.53 1.49 1.51 1.51 1.41 1.26 1.28 1.10 0.99 0.92 0.93 0.90 0.84 0.79 0.83 0.85 0.89 0.92 0.93 0.90 0.89 0.88
1.01 1.01 0.93 0.96 0.99 0.95 0.91 1.03 1.24 1.31 1.42 1.55 1.57 1.53 1.48 1.51 1.52 1.50 1.55 1.62 1.61 1.40 1.40 1.28 1.16 1.14 1.05 0.97 0.92 0.83 0.80 0.85 0.83 0.80 0.81 0.82 0.84 0.86
0.98 0.97 0.85 0.79 0.88 0.89 0.89 0.90 0.97 1.00 1.13 1.40 1.56 1.50 1.51 1.59 1.68 1.61 1.69 1.72 1.62 1.53 1.63 1.55 1.29 1.17 0.94 0.86 0.90 0.80 0.78 0.81 0.85 0.82 0.80 0.80 0.82 0.82
0.92 0.93 0.95 0.89 0.82 0.83 0.83 0.87 0.94 0.99 1.01 1.08 1.33 1.40 1.40 1.52 1.63 1.68 1.77 1.71 1.61 1.56 1.67 1.69 1.37 1.26 1.02 1.01 0.95 0.82 0.79 0.78 0.81 0.81 0.81 0.81 0.83 0.87
0.84 0.78 0.84 0.87 0.84 0.79 0.83 0.97 1.03 1.06 0.91 0.93 1.05 1.15 1.21 1.33 1.41 1.50 1.72 1.88 1.76 1.53 1.53 1.64 1.43 1.34 1.20 1.13 1.01 0.91 0.81 0.78 0.74 0.74 0.76 0.80 0.86 0.95
0.83 0.79 0.74 0.74 0.76 0.77 0.85 0.98 1.05 1.04 0.95 0.95 1.13 1.24 1.23 1.33 1.39 1.51 1.76 1.83 1.71 1.65 1.46 1.54 1.49 1.49 1.47 1.20 1.09 1.02 0.94 0.86 0.76 0.74 0.76 0.80 0.90 0.92
0.77 0.82 0.77 0.69 0.66 0.70 0.82 0.87 0.92 0.91 1.02 1.18 1.26 1.30 1.32 1.38 1.39 1.43 1.64 1.76 1.78 1.77 1.50 1.53 1.55 1.58 1.66 1.40 1.17 1.11 1.09 1.06 0.99 0.97 0.95 0.93 0.93 0.91
0.78 0.79 0.73 0.67 0.64 0.68 0.75 0.81 0.81 0.91 1.10 1.29 1.36 1.34 1.26 1.25 1.29 1.31 1.47 1.61 1.67 1.61 1.49 1.55 1.69 1.69 1.61 1.41 1.24 1.10 1.11 1.20 1.29 1.35 1.31 1.28 1.15 1.10
0.68 0.67 0.61 0.62 0.65 0.79 0.82 0.83 0.92 1.13 1.25 1.31 1.37 1.35 1.24 1.18 1.19 1.17 1.26 1.45 1.49 1.33 1.19 1.29 1.54 1.58 1.60 1.52 1.37 1.28 1.26 1.25 1.37 1.55 1.60 1.51 1.37 1.24
0.64 0.64 0.68 0.72 0.76 0.87 1.00 1.10 1.13 1.19 1.18 1.24 1.29 1.24 1.11 1.08 1.15 1.16 1.25 1.36 1.43 1.35 1.16 1.12 1.28 1.49 1.62 1.53 1.45 1.40 1.37 1.45 1.45 1.55 1.70 1.74 1.59 1.33
0.56 0.72 0.92 0.97 1.05 1.12 1.16 1.21 1.25 1.18 1.12 1.12 1.16 1.16 1.12 1.09 1.10 1.08 1.18 1.27 1.37 1.33 1.23 1.15 1.18 1.27 1.33 1.39 1.44 1.37 1.35 1.42 1.53 1.62 1.77 1.90 1.82 1.52
0.57 0.80 0.93 0.99 1.07 1.09 1.10 1.13 1.18 1.20 1.13 1.09 1.09 1.07 1.06 1.05 1.07 1.04 1.07 1.20 1.30 1.21 1.15 1.12 1.11 1.17 1.21 1.18 1.19 1.23 1.28 1.43 1.56 1.65 1.64 1.76 1.92 1.73
0.73 0.88 0.91 0.95 1.02 0.98 0.98 1.01 1.03 1.05 1.00 0.98 0.97 0.94 0.93 0.93 1.00 1.01 0.98 1.00 1.01 0.96 0.94 0.96 1.02 1.14 1.24 1.30 1.23 1.25 1.34 1.43 1.53 1.58 1.60 1.66 1.83 1.75
0.82 0.85 0.87 0.86 0.91 0.91 0.91 0.92 0.89 0.85 0.83 0.86 0.90 0.89 0.88 0.87 0.89 0.91 0.87 0.86 0.91 0.90 0.88 0.93 0.98 1.05 1.15 1.22 1.40 1.49 1.39 1.30 1.36 1.52 1.64 1.68 1.77 1.74
0.76 0.76 0.78 0.77 0.78 0.85 0.86 0.79 0.74 0.72 0.73 0.74 0.75 0.78 0.80 0.77 0.78 0.75 0.72 0.69 0.77 0.82 0.84 0.86 0.88 0.91 0.98 1.09 1.26 1.42 1.43 1.45 1.43 1.48 1.56 1.63 1.56 1.46
0.65 0.65 0.63 0.62 0.64 0.69 0.68 0.65 0.63 0.64 0.64 0.66 0.67 0.66 0.65 0.67 0.68 0.66 0.64 0.66 0.71 0.71 0.73 0.76 0.79 0.88 0.98 1.11 1.24 1.36 1.41 1.30 1.25 1.33 1.38 1.30 1.22 1.28
0.61 0.58 0.54 0.52 0.54 0.57 0.57 0.57 0.57 0.59 0.61 0.64 0.64 0.61 0.59 0.59 0.56 0.55 0.57 0.57 0.58 0.60 0.64 0.71 0.76 0.85 0.90 0.91 0.96 1.03 1.04 1.02 0.98 0.97 1.07 1.17 1.18 1.21